Regional Weather Roundup
Issued by NWS Little Rock, AR

Home | Current Version | Previous Version | Graphics & Text | Print | Product List | Glossary On
Versions: 1 2 3 4 5 6 7 8 9 10 11 12 13 14 15 16 17 18 19 20 21 22 23 24 25 26 27 28 29 30 31 32 33 34 35 36 37 38 39 40 41 42 43 44 45 46 47 48 49 50
000
ASUS44 KLZK 052105
RWRLZK

WEATHER ROUNDUP FOR ARKANSAS
NATIONAL WEATHER SERVICE LITTLE ROCK AR
300 PM CST THU MAR 05 2015

NOTE: "FAIR" INDICATES FEW OR NO CLOUDS BELOW 12,000 FEET WITH NO
SIGNIFICANT WEATHER AND/OR OBSTRUCTIONS TO VISIBILITY.

ARZ001-003-010-029-052200-
NORTHWEST ARKANSAS

CITY           SKY/WX    TMP DP  RH WIND       PRES   REMARKS
FAYETTEVILLE   SUNNY     35  13  40 VRB3      30.49F
FORT SMITH     SUNNY     42  17  36 NW10      30.53F
HARRISON       SUNNY     33  12  41 N12G20    30.48F WCI  24
BENTONVILLE    SUNNY     36  14  41 N9G16     30.49F
ROGERS         SUNNY     34  14  43 NE9       30.49F WCI  27
SILOAM SPGS    SUNNY     36  16  44 N5        30.51S
HIGHFILL       SUNNY     38  15  39 N7        30.48F
$$

ARZ004-005-016-052200-
NORTH CENTRAL ARKANSAS

CITY           SKY/WX    TMP DP  RH WIND       PRES   REMARKS
BATESVILLE     SUNNY     36   9  32 NW9G21    30.51S
FLIPPIN        SUNNY     34   9  35 N10       30.50S WCI  26
MTN HOME       SUNNY     34   8  33 N8G17     30.49F WCI  27
$$

ARZ040-041-052200-
WEST CENTRAL ARKANSAS

CITY           SKY/WX    TMP DP  RH WIND       PRES   REMARKS
MENA           SUNNY     39  21  48 N8        30.50S
MOUNT IDA      MOSUNNY   39  16  39 NW6       30.48F
$$

ARZ009-017-025-026-028-052200-
NORTHEAST ARKANSAS

CITY           SKY/WX    TMP DP  RH WIND       PRES   REMARKS
CORNING        FAIR      32  16  51 E9        30.52F WCI  24
JONESBORO      SUNNY     28  14  55 SE8       30.52F WCI  20
NEWPORT        SUNNY     32  12  43 E5        30.53F WCI  27
WALNUT RIDGE   SUNNY     30  14  51 SE6       30.50S WCI  24
BLYTHEVILLE    SUNNY     26  14  60 NE13      30.53F WCI  15
$$

ARZ022-023-033-042-044-052200-
CENTRAL ARKANSAS

CITY           SKY/WX    TMP DP  RH WIND       PRES   REMARKS
LITTLE ROCK    SUNNY     37   9  31 N12G22    30.52F
N LITTLE ROCK  SUNNY     37  13  37 N14G21    30.52F
JACKSONVILLE   SUNNY     37  10  32 N12G22    30.51F
SEARCY         SUNNY     36  10  34 N14G21    30.53S
HOT SPRINGS    SUNNY     39  16  39 NE10      30.51S
RUSSELLVILLE   SUNNY     40  10  29 N13G20    30.51F
CLINTON        FAIR      37   7  28 N12G17    30.52S
$$

ARZ036-052200-
EAST ARKANSAS

CITY           SKY/WX    TMP DP  RH WIND       PRES   REMARKS
WEST MEMPHIS   SUNNY     28  14  55 N12       30.52F WCI  18
$$

ARZ050-053-066-070-073-052200-
SOUTHWEST ARKANSAS

CITY           SKY/WX    TMP DP  RH WIND       PRES   REMARKS
ARKADELPHIA    FAIR      37  22  55 VRB6      30.54S
CAMDEN         SUNNY     39  14  35 MISG      30.53S
TEXARKANA      SUNNY     40  22  48 NE12      30.52F
EL DORADO      SUNNY     37  18  46 N10G23    30.51F
DE QUEEN       SUNNY     42  18  37 N10G23    30.52F
$$

ARZ056-057-069-052200-
SOUTHEAST ARKANSAS

CITY           SKY/WX    TMP DP  RH WIND       PRES   REMARKS
PINE BLUFF     SUNNY     32  13  45 N10       30.54F WCI  24
STUTTGART      SUNNY     34  14  44 N16       30.53S WCI  23
MONTICELLO     SUNNY     35  13  40 N9G16     30.51F WCI  28

$$





USA.gov is the U.S. government's official web portal to all federal, state and local government web resources and services.